This demonstration page uses our WeatherBlox Daily Observations layout. Learn more.

Left ArrowRight Arrow

40.92945, -100.16068

Hourly Observations for January 20, 2021

Temp ( °F °C ) Dew Point ( °F °C ) Humidity (%) Winds ( mph kmh ) Pressure ( in mb ) Visibility ( mi km ) Precip ( " mm )
12:15 am 00:15 Clear 26 -3.5 20 -6.6 79 79 SSW 3 6 30.36 1028 10 16.0934 0 0
12:35 am 00:35 Clear 28 -2.5 21 -6 77 77 SSW 9 15 30.34 1028 10 16.0934 0 0
12:55 am 00:55 Clear 29 -1.9 21 -6 74 74 SSW 12 19 30.33 1027 10 16.0934 0 0
1:15 am 01:15 Clear 29 -1.7 21 -6.2 72 72 SW 12 19 30.31 1027 10 16.0934 0 0
1:35 am 01:35 Clear 27 -2.6 20 -6.5 75 75 SSW 9 15 30.31 1027 10 16.0934 0 0
1:55 am 01:55 Clear 27 -2.7 20 -6.6 75 75 SSW 12 19 30.3 1026 10 16.0934 0 0
2:15 am 02:15 Clear 27 -2.8 20 -6.8 74 74 SW 12 19 30.3 1026 10 16.0934 0 0
2:35 am 02:35 Clear 27 -2.7 19 -7 73 73 SSW 12 19 30.28 1026 10 16.0934 0 0
2:55 am 02:55 Clear 27 -2.8 19 -7 73 73 SW 10 17 30.28 1025 10 16.0934 0 0
3:15 am 03:15 Clear 27 -3 19 -7 74 74 SSW 9 15 30.26 1025 10 16.0934 0 0
3:35 am 03:35 Clear 26 -3.3 19 -7.1 75 75 SSW 9 15 30.25 1024 10 16.0934 0 0
3:55 am 03:55 Clear 26 -3.2 19 -7.2 74 74 SSW 7 11 30.24 1024 10 16.0934 0 0
4:15 am 04:15 Clear 28 -2.4 19 -7.5 68 68 SSW 15 24 30.22 1023 10 16.0934 0 0
4:35 am 04:35 Clear 29 -1.9 19 -7.5 66 66 SW 12 19 30.21 1023 10 16.0934 0 0
4:55 am 04:55 Clear 30 -1.2 19 -7.5 63 63 SW 13 20 30.19 1022 10 16.0934 0 0
5:15 am 05:15 Clear 30 -1.2 19 -7.5 63 63 SW 16 26 30.17 1022 10 16.0934 0 0
5:35 am 05:35 Clear 31 -0.5 18 -7.6 59 59 WSW 10 17 30.15 1021 10 16.0934 0 0
5:55 am 05:55 Clear 32 -0.2 18 -7.6 58 58 SW 16 26 30.13 1020 10 16.0934 0 0
6:15 am 06:15 Clear 32 -0.2 18 -7.7 57 57 WSW 15 24 30.12 1020 10 16.0934 0 0
6:35 am 06:35 Clear 31 -0.3 18 -7.6 58 58 WSW 9 15 30.11 1020 10 16.0934 0 0
6:55 am 06:55 Clear 31 -0.8 19 -7.5 61 61 WNW 6 9 30.1 1019 10 16.0934 0 0
7:15 am 07:15 Clear 30 -0.9 18 -7.6 61 61 W 8 13 30.11 1020 10 16.0934 0 0
7:35 am 07:35 Clear 27 -2.6 18 -7.7 68 68 W 6 9 30.11 1020 10 16.0934 0 0
7:55 am 07:55 Clear 29 -1.5 19 -7.3 65 65 WNW 7 11 30.09 1019 10 16.0934 0 0
8:15 am 08:15 Sunny 27 -2.6 18 -7.6 69 69 WNW 5 7 30.09 1019 10 16.0934 0 0
8:35 am 08:35 Sunny 26 -3.2 19 -7.5 72 72 SW 8 13 30.09 1019 10 16.0934 0 0
8:55 am 08:55 Sunny 28 -2.2 19 -7.3 68 68 SSW 10 17 30.08 1019 10 16.0934 0 0
9:15 am 09:15 Sunny 29 -1.6 19 -7.1 66 66 SW 9 15 30.06 1018 10 16.0934 0 0
9:35 am 09:35 Sunny 31 -0.8 19 -7.1 63 63 W 8 13 30.06 1018 10 16.0934 0 0
9:55 am 09:55 Sunny 32 -0.2 20 -6.9 61 61 WSW 9 15 30.05 1018 10 16.0934 0 0
10:15 am 10:15 Sunny 33 0.6 20 -6.6 59 59 SW 9 15 30.03 1017 10 16.0934 0 0
10:35 am 10:35 Sunny 35 1.8 21 -6.2 56 56 W 8 13 30.01 1016 10 16.0934 0 0
10:55 am 10:55 Sunny 38 3.2 22 -5.8 52 52 W 8 13 30 1016 10 16.0934 0 0
11:15 am 11:15 Sunny 41 5 22 -5.5 47 47 WNW 9 15 29.97 1015 10 16.0934 0 0
11:35 am 11:35 Sunny 47 8.1 22 -5.4 38 38 WNW 14 22 29.93 1014 10 16.0934 0 0
11:55 am 11:55 Sunny 54 12.2 20 -6.9 26 26 WNW 31 50 29.88 1012 10 16.0934 0 0
12:15 pm 12:15 Sunny 54 12.2 17 -8.2 23 23 WNW 30 48 29.88 1012 10 16.0934 0 0
12:35 pm 12:35 Sunny 54 12.1 17 -8.1 24 24 NW 25 41 29.87 1012 10 16.0934 0 0
12:55 pm 12:55 Sunny 55 12.6 17 -8.2 23 23 NW 22 35 29.85 1011 10 16.0934 0 0
1:15 pm 13:15 Sunny 55 12.8 16 -8.8 21 21 NW 22 35 29.85 1011 10 16.0934 0 0
1:35 pm 13:35 Sunny 56 13.3 14 -10.1 19 19 NW 21 33 29.83 1010 10 16.0934 0 0
1:55 pm 13:55 Sunny 56 13.2 13 -10.6 18 18 NW 16 26 29.83 1010 10 16.0934 0 0
2:15 pm 14:15 Sunny 56 13.4 13 -10.3 18 18 NNW 14 22 29.83 1010 10 16.0934 0 0
2:35 pm 14:35 Sunny 57 13.7 14 -10.1 18 18 NNW 15 24 29.83 1010 10 16.0934 0 0
2:55 pm 14:55 Sunny 57 13.8 12 -11.1 17 17 NNW 14 22 29.82 1010 10 16.0934 0 0
3:15 pm 15:15 Sunny 57 13.9 12 -11 17 17 NNW 15 24 29.83 1010 10 16.0934 0 0
3:35 pm 15:35 Sunny 57 13.8 14 -10.2 18 18 N 15 24 29.83 1010 10 16.0934 0 0
3:55 pm 15:55 Sunny 56 13.6 15 -9.7 19 19 N 14 22 29.85 1011 10 16.0934 0 0
4:15 pm 16:15 Sunny 56 13.2 16 -8.9 21 21 N 8 13 29.85 1011 10 16.0934 0 0
4:35 pm 16:35 Sunny 55 12.9 16 -8.9 21 21 NNW 9 15 29.86 1011 10 16.0934 0 0
4:55 pm 16:55 Sunny 53 11.6 17 -8.3 24 24 N 7 11 29.89 1012 10 16.0934 0 0
5:15 pm 17:15 Sunny 50 10.1 17 -8.3 27 27 N 6 9 29.9 1013 10 16.0934 0 0
5:35 pm 17:35 Sunny 48 8.9 16 -9 27 27 NNE 5 7 29.91 1013 10 16.0934 0 0
5:55 pm 17:55 Clear 47 8.5 15 -9.4 27 27 NNE 5 7 29.92 1013 10 16.0934 0 0
6:15 pm 18:15 Clear 45 7.1 15 -9.2 31 31 NNE 6 9 29.94 1014 10 16.0934 0 0
6:35 pm 18:35 Clear 38 3.6 16 -8.9 40 40 NNE 6 9 29.98 1015 10 16.0934 0 0
6:55 pm 18:55 Clear 40 4.2 17 -8.6 39 39 NNE 10 17 29.99 1015 10 16.0934 0 0
7:15 pm 19:15 Clear 39 3.9 17 -8.1 42 42 NE 8 13 30 1016 10 16.0934 0 0
7:35 pm 19:35 Clear 37 2.9 17 -8.2 44 44 NE 7 11 30.01 1016 10 16.0934 0 0
7:55 pm 19:55 Clear 36 2 17 -8.1 48 48 NE 7 11 30.03 1017 10 16.0934 0 0
8:15 pm 20:15 Clear 35 1.4 18 -8 50 50 NE 7 11 30.04 1017 10 16.0934 0 0
8:35 pm 20:35 Clear 29 -1.5 16 -8.7 58 58 Calm 30.07 1018 10 16.0934 0 0
8:55 pm 20:55 Clear 30 -1.2 16 -8.7 57 57 Calm 30.07 1018 10 16.0934 0 0
9:15 pm 21:15 Clear 28 -2.5 16 -8.8 62 62 Calm 30.09 1019 10 16.0934 0 0
9:35 pm 21:35 Clear 28 -2.4 18 -7.9 66 66 Calm 30.09 1019 10 16.0934 0 0
9:55 pm 21:55 Clear 27 -3 20 -6.8 75 75 Calm 30.1 1019 10 16.0934 0 0
10:15 pm 22:15 Clear 26 -3.1 18 -7.6 71 71 Calm 30.1 1019 10 16.0934 0 0
10:35 pm 22:35 Clear 26 -3.6 18 -7.9 72 72 Calm 30.1 1019 10 16.0934 0 0
10:55 pm 22:55 Clear 25 -3.9 18 -7.7 75 75 W 5 7 30.11 1020 10 16.0934 0 0
11:15 pm 23:15 Clear 25 -4 18 -7.8 75 75 WNW 7 11 30.11 1020 10 16.0934 0 0
11:35 pm 23:35 Clear 24 -4.7 17 -8.1 77 77 WNW 5 7 30.11 1020 10 16.0934 0 0
11:55 pm 23:55 Clear 23 -5.1 17 -8.2 79 79 WNW 3 6 30.11 1020 10 16.0934 0 0

Powered by AerisWeather